Kuchera_Ratio
0.0 0.0 0.0 0.0 0.0 0.0 0.0 0.0 0.0 0.0 0.0 0.0 0.0 0.0 0.0 0.0 0.0 0.0 0.9 1.7 2.9 2.9 1.9 4.9 5.9 3.3 4.9 4.3 3.1 2.9 5.1 5.1 9.9 3.5 0.0 0.0 0.0 0.0 0.0 0.0 0.0 0.0 0.0
0.0 0.0 0.0 0.0 0.0 0.0 0.0 0.0 0.0 0.0 0.0 0.0 0.0 0.0 0.0 0.0 0.0 0.7 3.5 2.5 3.5 2.7 3.1 4.5 5.9 3.1 4.5 3.7 4.3 4.9 3.7 2.7 7.5 9.1 3.7 3.1 2.1 0.0 0.0 0.0 0.0 0.0 0.0
0.0 0.0 0.0 0.0 0.0 0.0 0.0 0.0 0.0 0.0 0.0 0.0 0.0 0.0 0.0 0.0 0.0 1.3 3.7 2.9 1.9 1.7 2.1 3.5 4.7 4.3 6.1 5.1 6.1 5.7 4.5 3.9 4.7 6.9 8.1 5.7 5.1 2.9 1.5 0.0 0.0 0.0 0.0
0.0 0.0 0.0 0.0 0.0 0.0 0.0 0.0 0.0 0.0 0.0 0.0 0.0 0.0 0.0 0.0 0.0 4.3 3.7 3.3 1.9 1.1 1.3 2.1 2.9 3.9 6.5 7.3 6.1 5.9 5.1 6.1 5.5 6.3 7.3 8.1 5.9 3.5 2.5 5.7 3.1 0.0 1.1
0.0 0.0 0.0 0.0 0.0 0.0 0.0 0.0 0.0 0.0 0.0 0.0 0.0 0.0 0.0 0.0 0.5 5.5 5.1 4.1 2.9 3.1 2.1 1.5 0.7 3.1 4.5 5.3 7.5 6.1 5.3 6.7 5.9 5.9 7.7 6.7 7.5 7.1 7.5 5.9 6.9 3.9 0.1
0.0 0.0 0.0 0.0 0.0 0.0 0.0 0.0 0.0 0.0 0.0 0.0 0.0 0.0 0.0 0.0 6.7 6.5 6.3 4.7 2.3 3.1 3.5 2.7 1.9 3.7 3.9 5.9 5.9 6.1 6.1 8.5 7.9 6.9 7.7 8.3 7.7 7.5 6.3 6.9 6.1 5.9 6.5
0.0 0.0 0.0 0.0 0.0 0.0 0.0 0.0 0.0 0.0 0.0 0.0 0.0 0.0 0.0 0.0 6.3 6.3 6.7 3.1 2.5 2.5 3.1 3.3 4.9 3.9 5.1 5.5 5.1 4.9 4.7 5.3 8.5 6.7 8.7 7.9 8.3 3.9 3.7 5.5 5.1 5.5 4.9
0.0 0.0 0.0 0.0 0.0 0.0 0.0 0.0 0.0 0.0 0.0 0.0 0.0 0.0 0.0 0.0 6.3 6.9 7.5 1.9 1.7 1.5 1.7 3.7 6.3 6.3 6.3 8.1 6.1 4.9 3.7 2.3 2.9 5.1 6.1 5.3 4.3 1.3 1.1 1.3 2.3 2.9 1.3
0.0 0.0 0.0 0.0 0.0 0.0 0.0 0.0 0.0 0.0 0.0 0.0 0.0 0.0 0.0 0.0 5.9 7.3 7.3 3.3 3.1 2.7 2.1 3.1 6.1 7.1 9.1 8.1 7.9 7.1 5.9 3.3 0.7 3.5 3.9 4.1 4.5 4.3 3.9 3.3 3.9 4.9 4.1
0.0 0.0 0.0 0.0 0.0 0.0 0.0 0.0 0.0 0.0 0.0 0.0 0.0 0.0 0.3 0.0 3.5 6.9 7.3 5.3 6.3 6.7 4.1 3.1 5.9 9.7 9.7 9.5 8.7 7.7 8.3 5.7 4.5 2.3 4.1 5.1 3.3 1.5 4.9 4.1 1.7 5.5 3.9
0.0 0.0 0.0 0.0 0.0 0.0 0.0 0.0 0.0 0.0 0.0 0.0 0.0 0.0 0.0 0.0 0.0 6.3 7.5 7.9 9.9 8.9 7.5 6.9 6.1 10.3 9.7 9.3 9.5 8.9 9.7 7.5 5.7 4.3 4.9 4.9 3.1 0.7 0.0 0.0 0.0 2.5 5.7
0.0 0.0 0.0 0.0 0.0 0.0 0.0 0.0 0.0 0.0 0.0 0.0 0.0 0.0 0.0 0.0 3.3 5.5 7.1 8.5 9.3 9.7 10.7 8.7 9.1 10.5 9.7 9.3 9.1 9.5 8.3 6.3 2.5 2.7 4.9 5.7 5.9 3.7 2.1 1.5 0.1 1.5 2.1
0.0 0.9 0.0 0.0 0.0 0.0 0.0 0.0 0.0 0.0 0.0 0.3 1.3 1.7 1.9 0.1 0.5 6.3 7.1 8.1 9.1 10.3 10.1 10.5 10.5 10.1 9.1 8.5 9.3 8.9 7.7 4.3 4.5 4.9 5.1 6.1 4.7 4.9 4.9 4.7 3.7 2.9 2.5
4.5 0.0 0.0 0.0 0.0 0.0 0.0 0.0 0.0 1.9 3.5 3.3 4.9 5.3 5.1 3.9 5.7 6.9 7.5 6.1 9.7 11.1 10.9 8.9 10.1 10.3 9.3 9.1 7.9 7.1 6.1 5.5 6.5 5.5 4.9 3.7 3.1 3.3 4.1 3.3 4.5 4.3 4.3
0.0 0.0 0.0 0.0 0.0 0.0 0.0 0.0 1.3 2.7 7.1 7.7 8.1 6.7 9.9 11.1 11.1 10.3 10.3 10.3 11.7 12.5 10.9 9.1 9.1 9.3 8.9 8.5 7.7 7.1 6.1 4.9 5.9 5.5 4.7 4.5 4.3 4.1 4.7 3.7 4.3 4.7 5.7
0.0 0.0 0.0 0.0 0.0 0.0 0.0 0.0 8.9 9.1 9.7 9.9 10.3 10.5 9.7 10.1 11.1 11.1 11.1 10.1 10.9 10.3 10.3 11.9 11.5 11.1 11.9 10.7 10.1 8.7 6.5 7.1 5.9 5.7 5.5 5.1 5.3 4.9 5.3 4.7 4.9 5.5 6.7
0.0 0.0 0.0 0.0 0.0 0.0 0.0 0.0 2.9 2.5 8.1 8.5 9.5 8.7 10.5 11.5 10.7 11.1 10.9 9.1 9.1 9.3 10.7 11.9 12.4 12.2 11.9 11.1 10.3 9.1 8.9 7.7 6.9 5.5 6.1 6.3 5.9 4.7 4.9 5.1 6.3 6.3 7.5
0.0 7.0 0.0 0.0 0.0 0.0 0.0 0.0 1.3 3.7 5.7 3.5 4.7 6.7 8.1 8.7 9.3 9.9 10.3 7.9 9.9 9.3 10.1 11.5 12.4 12.2 12.0 11.5 10.3 9.3 8.3 7.3 7.1 6.7 6.7 6.5 6.3 5.9 6.5 5.9 4.9 6.3 7.1
0.0 0.0 0.0 0.0 0.0 0.0 0.0 0.0 0.0 0.1 1.3 1.3 0.5 3.7 4.7 6.5 6.7 7.7 9.1 9.5 11.5 11.3 10.9 11.1 10.3 10.9 11.9 11.3 10.3 9.5 8.9 8.7 8.1 7.7 7.1 7.1 7.3 5.5 6.7 5.5 5.1 7.1 6.7
0.0 7.1 3.1 0.0 0.0 0.0 0.0 0.0 0.1 1.1 1.9 2.1 3.1 5.7 5.7 3.1 6.1 8.1 7.9 10.7 10.9 10.5 10.9 10.3 9.5 9.3 10.5 11.3 10.3 9.7 8.9 8.9 8.7 7.7 7.7 7.5 7.5 6.1 7.3 7.3 6.3 6.1 6.5
0.0 0.0 6.5 0.0 0.0 0.0 0.0 0.0 0.3 1.7 2.9 3.7 3.5 6.5 12.2 5.3 5.9 6.5 7.7 10.1 10.3 10.1 11.1 10.9 10.1 9.7 9.7 9.5 9.5 9.7 9.3 9.5 8.7 8.5 7.9 8.1 8.1 7.7 6.3 5.7 5.9 5.5 5.1
0.0 0.0 0.0 0.0 0.0 0.0 0.5 0.0 0.3 1.9 2.9 4.3 4.1 4.7 8.5 4.9 5.1 6.3 7.7 10.5 9.9 8.1 8.9 10.7 10.7 9.9 10.5 10.7 10.5 10.5 10.1 10.3 9.5 9.3 8.5 7.7 7.7 7.1 6.3 6.7 6.3 5.7 5.1
0.0 0.0 0.0 0.0 0.0 2.1 0.5 0.1 1.5 3.1 3.9 4.3 4.5 5.5 5.7 6.9 7.3 7.3 8.9 10.5 9.5 9.9 9.9 10.9 11.9 12.2 10.9 10.3 9.1 9.3 11.7 11.9 10.3 8.9 9.1 7.3 7.1 7.1 7.3 7.1 7.1 6.9 6.1
0.0 0.0 0.0 0.0 2.1 0.9 2.9 4.3 3.1 5.7 5.5 5.7 6.7 6.3 6.5 7.5 9.1 9.1 9.3 9.9 10.7 10.9 10.9 11.9 12.1 12.9 12.6 12.0 10.5 9.7 11.5 12.4 9.1 7.7 7.9 7.5 6.7 6.3 6.3 6.5 7.1 7.7 7.1
0.0 0.0 0.0 0.3 3.3 4.9 6.3 4.5 5.3 6.1 6.1 7.3 8.3 7.7 5.1 6.5 6.5 9.1 9.3 9.5 10.7 11.3 11.9 12.0 12.5 12.5 12.8 12.6 13.2 13.2 13.7 13.4 11.5 8.9 5.7 6.3 7.3 7.3 7.1 6.5 6.9 6.5 6.9
0.0 0.0 0.0 0.7 2.9 4.5 6.1 9.1 8.9 7.9 8.9 8.7 8.9 9.1 8.5 7.7 7.1 9.1 8.7 9.7 10.7 10.7 11.7 11.5 12.1 12.5 12.4 11.9 13.2 14.0 14.2 13.4 10.5 9.5 7.1 5.7 7.9 7.3 6.5 7.1 7.5 6.3 6.3